User: anonymous
Location: Chequamegon National Forest
(46.1070°N, 90.8420°W)
Time: 16:30:18
(UTC-05:00)
Language:

ISS - Orbit

View from above orbital plane
View from above orbital plane
View from above satellite
View from above satellite

Ground track
Ground track

The orbit data is extracted from the following two-line orbital elements,

1 25544U 98067A   14259.57688191  .00018394  00000-0  32559-3 0   955
2 25544 051.6472 006.6200 0002276 112.4758 007.6153 15.50341159905501
Epoch (UTC): 16 September 2014 13:50:42
Eccentricity: 0.0002276
inclination: 51.6472°
perigee height: 414 km
apogee height: 417 km
right ascension of ascending node: 6.6200°
argument of perigee: 112.4758°
revolutions per day: 15.50341159
mean anomaly at epoch: 7.6153°
orbit number at epoch: 90550

The dashed part of the orbit path shows where the satellite is in the earth's shadow,  

DLR